QPF
0.00 0.00 0.00 0.00 0.00 0.00 0.01 0.00 0.00 0.00 0.00 0.00 0.00 0.00 0.00 0.01 0.01 0.02 0.03 0.03 0.03 0.02 0.03 0.03 0.02 0.01 0.00 0.00 0.00 0.00 0.00 0.01 0.01 0.01 0.03 0.06 0.05 0.05 0.04 0.05 0.05 0.08 0.10 0.12
0.00 0.00 0.00 0.00 0.00 0.00 0.01 0.01 0.00 0.00 0.00 0.00 0.00 0.00 0.00 0.00 0.00 0.01 0.01 0.02 0.02 0.02 0.02 0.02 0.02 0.02 0.01 0.00 0.00 0.01 0.01 0.02 0.02 0.05 0.08 0.10 0.08 0.06 0.05 0.06 0.06 0.07 0.08 0.11
0.00 0.00 0.00 0.00 0.00 0.00 0.00 0.00 0.00 0.00 0.00 0.00 0.00 0.00 0.00 0.00 0.00 0.00 0.00 0.00 0.00 0.01 0.01 0.02 0.02 0.02 0.02 0.02 0.02 0.03 0.04 0.06 0.08 0.12 0.16 0.12 0.09 0.08 0.06 0.07 0.08 0.09 0.08 0.08
0.00 0.00 0.00 0.00 0.00 0.00 0.00 0.00 0.00 0.00 0.00 0.00 0.00 0.00 0.00 0.00 0.00 0.00 0.00 0.00 0.00 0.00 0.01 0.01 0.01 0.01 0.02 0.02 0.03 0.05 0.07 0.12 0.17 0.21 0.18 0.13 0.09 0.08 0.07 0.08 0.09 0.10 0.08 0.07
0.00 0.00 0.00 0.00 0.00 0.00 0.00 0.00 0.00 0.00 0.00 0.00 0.00 0.00 0.00 0.00 0.00 0.00 0.00 0.00 0.00 0.00 0.00 0.01 0.01 0.02 0.03 0.03 0.04 0.08 0.13 0.18 0.25 0.25 0.22 0.16 0.09 0.06 0.06 0.06 0.06 0.08 0.09 0.09
0.00 0.00 0.00 0.00 0.00 0.00 0.00 0.00 0.00 0.00 0.00 0.00 0.00 0.00 0.00 0.00 0.00 0.00 0.00 0.00 0.01 0.01 0.02 0.02 0.04 0.05 0.05 0.07 0.10 0.13 0.19 0.25 0.28 0.26 0.19 0.13 0.07 0.04 0.03 0.03 0.04 0.05 0.06 0.07
0.00 0.00 0.00 0.00 0.00 0.00 0.00 0.00 0.00 0.00 0.00 0.00 0.00 0.01 0.01 0.01 0.00 0.00 0.00 0.01 0.02 0.04 0.08 0.11 0.14 0.16 0.20 0.23 0.23 0.23 0.24 0.23 0.20 0.15 0.10 0.06 0.03 0.02 0.02 0.02 0.02 0.02 0.02 0.03
0.00 0.00 0.00 0.00 0.00 0.00 0.00 0.00 0.01 0.01 0.01 0.00 0.01 0.03 0.03 0.01 0.01 0.01 0.01 0.02 0.04 0.08 0.14 0.22 0.30 0.37 0.40 0.38 0.33 0.31 0.27 0.21 0.15 0.09 0.06 0.04 0.03 0.02 0.01 0.01 0.00 0.00 0.00 0.00
0.00 0.00 0.00 0.00 0.00 0.00 0.00 0.00 0.01 0.02 0.02 0.02 0.02 0.05 0.04 0.03 0.02 0.02 0.02 0.03 0.05 0.11 0.18 0.27 0.38 0.46 0.44 0.38 0.31 0.27 0.23 0.17 0.13 0.08 0.05 0.03 0.02 0.01 0.01 0.00 0.00 0.00 0.00 0.00
0.00 0.00 0.00 0.00 0.00 0.00 0.01 0.02 0.04 0.06 0.07 0.05 0.05 0.07 0.06 0.04 0.04 0.04 0.04 0.04 0.06 0.11 0.19 0.30 0.39 0.47 0.53 0.49 0.42 0.28 0.18 0.15 0.11 0.07 0.05 0.03 0.02 0.01 0.01 0.01 0.00 0.00 0.00 0.00
0.00 0.00 0.00 0.00 0.00 0.01 0.02 0.03 0.06 0.08 0.11 0.11 0.10 0.12 0.10 0.07 0.05 0.05 0.06 0.05 0.05 0.10 0.17 0.28 0.42 0.47 0.45 0.38 0.34 0.27 0.16 0.11 0.07 0.06 0.05 0.03 0.02 0.02 0.01 0.00 0.00 0.00 0.00 0.00
0.00 0.00 0.00 0.00 0.01 0.02 0.04 0.06 0.07 0.08 0.09 0.10 0.11 0.15 0.16 0.09 0.07 0.07 0.05 0.05 0.06 0.10 0.14 0.19 0.25 0.30 0.29 0.24 0.20 0.18 0.13 0.09 0.08 0.08 0.07 0.06 0.04 0.02 0.02 0.01 0.00 0.00 0.00 0.00
0.00 0.00 0.00 0.00 0.01 0.03 0.07 0.08 0.08 0.08 0.09 0.12 0.16 0.25 0.20 0.12 0.09 0.07 0.08 0.09 0.06 0.07 0.09 0.11 0.12 0.12 0.14 0.14 0.12 0.12 0.12 0.14 0.15 0.14 0.15 0.14 0.09 0.05 0.03 0.02 0.01 0.00 0.00 0.00
0.00 0.00 0.00 0.02 0.04 0.07 0.10 0.12 0.11 0.10 0.12 0.16 0.23 0.28 0.16 0.10 0.09 0.08 0.11 0.11 0.07 0.06 0.06 0.07 0.07 0.07 0.07 0.07 0.08 0.10 0.14 0.18 0.21 0.22 0.20 0.17 0.12 0.06 0.04 0.03 0.02 0.02 0.01 0.01
0.00 0.00 0.00 0.01 0.03 0.08 0.14 0.18 0.19 0.19 0.20 0.27 0.28 0.16 0.11 0.08 0.07 0.07 0.10 0.10 0.07 0.06 0.06 0.07 0.06 0.06 0.06 0.06 0.06 0.08 0.11 0.14 0.18 0.21 0.20 0.16 0.11 0.08 0.06 0.05 0.04 0.04 0.04 0.03
0.00 0.00 0.00 0.01 0.02 0.06 0.11 0.14 0.18 0.21 0.21 0.17 0.11 0.09 0.06 0.05 0.06 0.05 0.04 0.04 0.04 0.05 0.06 0.07 0.07 0.07 0.07 0.06 0.06 0.06 0.07 0.10 0.14 0.17 0.17 0.14 0.09 0.07 0.06 0.06 0.06 0.05 0.04 0.04
0.00 0.00 0.00 0.00 0.01 0.02 0.04 0.05 0.06 0.09 0.08 0.05 0.06 0.08 0.05 0.03 0.05 0.04 0.03 0.03 0.02 0.03 0.05 0.06 0.05 0.05 0.05 0.04 0.04 0.04 0.05 0.08 0.10 0.12 0.12 0.09 0.06 0.05 0.06 0.05 0.05 0.04 0.03 0.03
0.00 0.00 0.00 0.00 0.00 0.01 0.01 0.01 0.01 0.02 0.03 0.04 0.05 0.04 0.04 0.04 0.03 0.03 0.03 0.02 0.02 0.02 0.03 0.03 0.04 0.03 0.03 0.02 0.03 0.03 0.04 0.05 0.07 0.07 0.06 0.06 0.05 0.04 0.03 0.03 0.03 0.02 0.02 0.02
0.00 0.00 0.00 0.00 0.00 0.00 0.00 0.00 0.00 0.01 0.02 0.02 0.03 0.03 0.03 0.05 0.04 0.03 0.02 0.01 0.01 0.01 0.01 0.01 0.01 0.01 0.01 0.01 0.01 0.01 0.01 0.02 0.02 0.02 0.02 0.02 0.02 0.01 0.01 0.01 0.01 0.01 0.01 0.01
0.00 0.00 0.00 0.00 0.00 0.00 0.00 0.00 0.00 0.00 0.01 0.02 0.02 0.02 0.02 0.02 0.02 0.01 0.01 0.01 0.00 0.00 0.00 0.00 0.00 0.00 0.00 0.00 0.01 0.01 0.00 0.01 0.01 0.01 0.00 0.00 0.00 0.00 0.00 0.00 0.00 0.00 0.00 0.00
0.00 0.00 0.00 0.00 0.00 0.00 0.00 0.00 0.00 0.00 0.01 0.01 0.00 0.00 0.00 0.01 0.01 0.00 0.00 0.00 0.00 0.00 0.00 0.00 0.00 0.00 0.00 0.00 0.00 0.00 0.00 0.00 0.00 0.00 0.00 0.00 0.00 0.00 0.00 0.00 0.00 0.00 0.00 0.00
0.00 0.00 0.00 0.00 0.00 0.00 0.00 0.00 0.00 0.00 0.00 0.00 0.00 0.00 0.00 0.00 0.00 0.00 0.01 0.00 0.00 0.00 0.00 0.00 0.00 0.00 0.00 0.00 0.00 0.00 0.00 0.00 0.00 0.00 0.00 0.00 0.00 0.00 0.00 0.00 0.00 0.00 0.00 0.00
0.00 0.00 0.00 0.00 0.00 0.00 0.00 0.00 0.00 0.00 0.00 0.00 0.00 0.00 0.00 0.00 0.00 0.00 0.00 0.00 0.00 0.00 0.00 0.00 0.00 0.00 0.00 0.00 0.00 0.00 0.00 0.00 0.00 0.00 0.00 0.00 0.00 0.00 0.00 0.00 0.00 0.00 0.00 0.00
0.00 0.00 0.00 0.00 0.00 0.00 0.00 0.00 0.00 0.00 0.00 0.00 0.00 0.00 0.00 0.00 0.00 0.00 0.00 0.00 0.00 0.00 0.00 0.00 0.00 0.00 0.00 0.00 0.00 0.00 0.00 0.00 0.00 0.00 0.00 0.00 0.00 0.00 0.00 0.00 0.00 0.00 0.00 0.00
0.00 0.00 0.00 0.00 0.00 0.00 0.00 0.00 0.00 0.00 0.00 0.00 0.00 0.00 0.00 0.00 0.00 0.00 0.00 0.00 0.00 0.00 0.00 0.00 0.00 0.00 0.00 0.00 0.00 0.00 0.00 0.00 0.00 0.00 0.00 0.00 0.00 0.00 0.00 0.00 0.00 0.00 0.00 0.00
0.00 0.00 0.00 0.00 0.00 0.00 0.00 0.00 0.00 0.00 0.00 0.00 0.00 0.00 0.00 0.00 0.00 0.00 0.00 0.00 0.00 0.00 0.00 0.00 0.00 0.00 0.00 0.00 0.00 0.00 0.00 0.00 0.00 0.00 0.00 0.00 0.00 0.00 0.00 0.00 0.00 0.00 0.00 0.00
MSLP
1011.64 1012.45 1013.17 1013.75 1014.17 1014.43 1014.57 1014.59 1014.53 1014.41 1014.26 1014.08 1013.88 1013.66 1013.41 1013.13 1012.80 1012.40 1011.94 1011.40 1010.78 1010.11 1009.42 1008.74 1008.14 1007.66 1007.35 1007.24 1007.35 1007.68 1008.18 1008.81 1009.51 1010.23 1010.90 1011.50 1011.99 1012.39 1012.67 1012.89 1013.05 1013.20 1013.35 1013.52
1012.41 1013.13 1013.73 1014.19 1014.51 1014.71 1014.81 1014.83 1014.82 1014.77 1014.71 1014.62 1014.50 1014.34 1014.12 1013.83 1013.45 1012.98 1012.41 1011.75 1011.00 1010.19 1009.35 1008.53 1007.78 1007.18 1006.76 1006.58 1006.65 1006.96 1007.50 1008.19 1008.98 1009.80 1010.57 1011.25 1011.80 1012.22 1012.50 1012.68 1012.80 1012.89 1013.00 1013.15
1013.25 1013.85 1014.31 1014.64 1014.86 1014.97 1015.03 1015.06 1015.09 1015.11 1015.13 1015.13 1015.08 1014.97 1014.77 1014.46 1014.04 1013.50 1012.85 1012.08 1011.22 1010.29 1009.34 1008.42 1007.58 1006.89 1006.40 1006.17 1006.21 1006.51 1007.07 1007.80 1008.64 1009.52 1010.35 1011.08 1011.67 1012.09 1012.36 1012.51 1012.59 1012.64 1012.71 1012.83
1014.18 1014.63 1014.96 1015.16 1015.26 1015.30 1015.32 1015.36 1015.42 1015.50 1015.59 1015.65 1015.66 1015.58 1015.38 1015.05 1014.59 1013.98 1013.25 1012.40 1011.47 1010.47 1009.46 1008.48 1007.60 1006.87 1006.36 1006.10 1006.12 1006.42 1006.97 1007.72 1008.57 1009.46 1010.30 1011.04 1011.62 1012.03 1012.28 1012.40 1012.45 1012.47 1012.50 1012.60
1015.18 1015.50 1015.69 1015.77 1015.77 1015.75 1015.74 1015.78 1015.86 1015.99 1016.12 1016.23 1016.26 1016.19 1015.98 1015.61 1015.09 1014.43 1013.63 1012.73 1011.75 1010.73 1009.71 1008.73 1007.86 1007.15 1006.65 1006.40 1006.42 1006.71 1007.24 1007.95 1008.77 1009.62 1010.42 1011.11 1011.66 1012.04 1012.26 1012.36 1012.38 1012.38 1012.39 1012.46
1016.22 1016.42 1016.50 1016.47 1016.41 1016.34 1016.31 1016.34 1016.45 1016.60 1016.75 1016.87 1016.90 1016.80 1016.55 1016.13 1015.55 1014.83 1013.99 1013.06 1012.07 1011.07 1010.08 1009.15 1008.34 1007.69 1007.24 1007.02 1007.04 1007.31 1007.79 1008.43 1009.18 1009.94 1010.66 1011.28 1011.76 1012.09 1012.28 1012.36 1012.37 1012.35 1012.36 1012.41
1017.25 1017.35 1017.34 1017.25 1017.13 1017.04 1017.00 1017.04 1017.15 1017.30 1017.45 1017.55 1017.54 1017.39 1017.08 1016.59 1015.95 1015.18 1014.31 1013.37 1012.40 1011.44 1010.52 1009.69 1008.97 1008.40 1008.02 1007.84 1007.87 1008.11 1008.52 1009.07 1009.70 1010.34 1010.95 1011.46 1011.87 1012.14 1012.30 1012.36 1012.37 1012.36 1012.37 1012.41
1018.20 1018.23 1018.16 1018.04 1017.90 1017.80 1017.76 1017.80 1017.91 1018.05 1018.16 1018.21 1018.15 1017.93 1017.54 1016.98 1016.27 1015.45 1014.56 1013.63 1012.70 1011.80 1010.98 1010.25 1009.64 1009.18 1008.87 1008.74 1008.77 1008.96 1009.30 1009.73 1010.23 1010.73 1011.20 1011.60 1011.91 1012.13 1012.26 1012.33 1012.35 1012.36 1012.39 1012.44
1019.03 1019.01 1018.92 1018.78 1018.64 1018.55 1018.52 1018.56 1018.66 1018.76 1018.83 1018.82 1018.67 1018.37 1017.90 1017.26 1016.50 1015.64 1014.74 1013.82 1012.94 1012.12 1011.40 1010.78 1010.28 1009.91 1009.67 1009.57 1009.60 1009.74 1009.99 1010.30 1010.65 1011.01 1011.35 1011.64 1011.87 1012.04 1012.15 1012.23 1012.28 1012.33 1012.39 1012.46
1019.68 1019.65 1019.55 1019.43 1019.31 1019.24 1019.23 1019.27 1019.34 1019.40 1019.41 1019.32 1019.10 1018.71 1018.16 1017.47 1016.65 1015.77 1014.87 1013.98 1013.14 1012.40 1011.75 1011.23 1010.82 1010.52 1010.34 1010.26 1010.27 1010.36 1010.51 1010.71 1010.93 1011.16 1011.38 1011.57 1011.73 1011.86 1011.97 1012.07 1012.15 1012.24 1012.34 1012.45
1020.15 1020.13 1020.06 1019.97 1019.89 1019.85 1019.84 1019.88 1019.92 1019.94 1019.88 1019.72 1019.42 1018.97 1018.36 1017.62 1016.79 1015.90 1015.00 1014.14 1013.35 1012.66 1012.07 1011.61 1011.26 1011.02 1010.86 1010.78 1010.76 1010.80 1010.87 1010.97 1011.07 1011.19 1011.31 1011.42 1011.53 1011.64 1011.75 1011.87 1011.99 1012.12 1012.25 1012.39
1020.48 1020.50 1020.48 1020.43 1020.40 1020.38 1020.39 1020.41 1020.42 1020.39 1020.28 1020.05 1019.70 1019.20 1018.56 1017.80 1016.96 1016.08 1015.21 1014.38 1013.62 1012.97 1012.43 1012.00 1011.67 1011.44 1011.28 1011.19 1011.14 1011.11 1011.11 1011.12 1011.14 1011.17 1011.21 1011.27 1011.34 1011.43 1011.55 1011.68 1011.83 1011.98 1012.14 1012.30
1020.75 1020.82 1020.86 1020.87 1020.87 1020.87 1020.89 1020.89 1020.87 1020.79 1020.63 1020.36 1019.97 1019.45 1018.80 1018.06 1017.24 1016.39 1015.55 1014.76 1014.03 1013.40 1012.87 1012.44 1012.12 1011.87 1011.69 1011.57 1011.47 1011.40 1011.33 1011.28 1011.23 1011.20 1011.18 1011.19 1011.24 1011.31 1011.43 1011.56 1011.71 1011.87 1012.04 1012.20
1021.02 1021.16 1021.26 1021.32 1021.36 1021.39 1021.39 1021.38 1021.32 1021.20 1021.00 1020.70 1020.29 1019.77 1019.15 1018.44 1017.67 1016.87 1016.07 1015.31 1014.60 1013.98 1013.45 1013.01 1012.65 1012.38 1012.16 1011.99 1011.86 1011.73 1011.62 1011.52 1011.42 1011.35 1011.29 1011.27 1011.29 1011.34 1011.43 1011.55 1011.69 1011.83 1011.97 1012.10
1021.37 1021.58 1021.74 1021.84 1021.91 1021.94 1021.94 1021.90 1021.80 1021.64 1021.41 1021.09 1020.68 1020.18 1019.60 1018.94 1018.23 1017.48 1016.74 1016.01 1015.33 1014.71 1014.16 1013.70 1013.31 1013.00 1012.74 1012.53 1012.35 1012.19 1012.04 1011.91 1011.78 1011.67 1011.59 1011.54 1011.52 1011.55 1011.60 1011.68 1011.78 1011.87 1011.96 1012.03
1021.84 1022.10 1022.30 1022.44 1022.52 1022.55 1022.52 1022.44 1022.31 1022.11 1021.85 1021.52 1021.13 1020.65 1020.12 1019.52 1018.87 1018.19 1017.50 1016.81 1016.15 1015.53 1014.97 1014.48 1014.06 1013.71 1013.42 1013.17 1012.96 1012.78 1012.61 1012.45 1012.31 1012.17 1012.07 1011.99 1011.93 1011.92 1011.92 1011.95 1011.98 1012.01 1012.03 1012.03
1022.40 1022.71 1022.93 1023.08 1023.16 1023.17 1023.11 1022.99 1022.82 1022.59 1022.30 1021.96 1021.57 1021.13 1020.64 1020.10 1019.51 1018.89 1018.25 1017.60 1016.96 1016.35 1015.78 1015.27 1014.83 1014.46 1014.14 1013.88 1013.66 1013.46 1013.29 1013.12 1012.96 1012.82 1012.69 1012.58 1012.49 1012.42 1012.38 1012.34 1012.30 1012.26 1012.20 1012.12
1023.02 1023.33 1023.56 1023.70 1023.75 1023.73 1023.64 1023.48 1023.26 1022.99 1022.69 1022.34 1021.96 1021.55 1021.09 1020.59 1020.06 1019.48 1018.88 1018.27 1017.65 1017.05 1016.49 1015.98 1015.53 1015.15 1014.84 1014.58 1014.36 1014.18 1014.01 1013.85 1013.69 1013.54 1013.39 1013.26 1013.13 1013.02 1012.92 1012.82 1012.72 1012.61 1012.47 1012.32
1023.60 1023.89 1024.09 1024.20 1024.22 1024.16 1024.02 1023.82 1023.57 1023.28 1022.96 1022.61 1022.23 1021.83 1021.40 1020.94 1020.44 1019.90 1019.33 1018.74 1018.15 1017.57 1017.02 1016.53 1016.09 1015.73 1015.43 1015.19 1015.00 1014.84 1014.70 1014.56 1014.41 1014.26 1014.11 1013.95 1013.80 1013.66 1013.51 1013.37 1013.22 1013.05 1012.85 1012.64
1024.04 1024.28 1024.43 1024.49 1024.47 1024.37 1024.20 1023.97 1023.70 1023.39 1023.06 1022.71 1022.34 1021.96 1021.55 1021.10 1020.63 1020.11 1019.57 1019.00 1018.43 1017.87 1017.35 1016.87 1016.47 1016.14 1015.87 1015.67 1015.52 1015.40 1015.29 1015.18 1015.06 1014.93 1014.78 1014.62 1014.46 1014.29 1014.12 1013.95 1013.76 1013.56 1013.34 1013.09
1024.27 1024.43 1024.51 1024.52 1024.46 1024.32 1024.13 1023.89 1023.62 1023.31 1022.99 1022.65 1022.30 1021.93 1021.53 1021.11 1020.64 1020.15 1019.62 1019.07 1018.52 1017.99 1017.49 1017.05 1016.67 1016.38 1016.16 1016.00 1015.90 1015.83 1015.76 1015.69 1015.60 1015.50 1015.37 1015.22 1015.06 1014.89 1014.72 1014.54 1014.34 1014.13 1013.90 1013.63
1024.23 1024.31 1024.32 1024.27 1024.17 1024.02 1023.82 1023.59 1023.34 1023.06 1022.76 1022.45 1022.13 1021.78 1021.40 1020.99 1020.55 1020.07 1019.56 1019.03 1018.49 1017.98 1017.50 1017.09 1016.75 1016.49 1016.31 1016.20 1016.15 1016.12 1016.10 1016.07 1016.03 1015.95 1015.86 1015.73 1015.59 1015.44 1015.28 1015.11 1014.93 1014.73 1014.50 1014.24
1023.92 1023.91 1023.86 1023.77 1023.64 1023.49 1023.31 1023.12 1022.90 1022.67 1022.42 1022.16 1021.87 1021.56 1021.22 1020.84 1020.41 1019.95 1019.46 1018.94 1018.43 1017.93 1017.48 1017.09 1016.77 1016.54 1016.39 1016.31 1016.28 1016.30 1016.32 1016.34 1016.33 1016.30 1016.24 1016.15 1016.04 1015.92 1015.79 1015.65 1015.49 1015.31 1015.11 1014.87
1023.39 1023.30 1023.19 1023.07 1022.94 1022.81 1022.67 1022.52 1022.37 1022.21 1022.03 1021.82 1021.59 1021.33 1021.03 1020.69 1020.29 1019.86 1019.39 1018.89 1018.39 1017.91 1017.47 1017.09 1016.79 1016.56 1016.42 1016.36 1016.35 1016.39 1016.44 1016.49 1016.53 1016.54 1016.52 1016.47 1016.41 1016.32 1016.23 1016.12 1015.99 1015.85 1015.67 1015.47
1022.68 1022.53 1022.39 1022.26 1022.15 1022.05 1021.97 1021.89 1021.82 1021.73 1021.62 1021.49 1021.33 1021.13 1020.88 1020.58 1020.23 1019.83 1019.39 1018.92 1018.44 1017.97 1017.53 1017.15 1016.83 1016.60 1016.45 1016.37 1016.36 1016.40 1016.47 1016.54 1016.61 1016.66 1016.69 1016.69 1016.67 1016.63 1016.57 1016.50 1016.41 1016.29 1016.15 1015.98
1021.88 1021.69 1021.54 1021.42 1021.35 1021.31 1021.30 1021.30 1021.30 1021.29 1021.26 1021.20 1021.11 1020.96 1020.77 1020.52 1020.22 1019.86 1019.45 1019.01 1018.54 1018.08 1017.64 1017.24 1016.90 1016.64 1016.46 1016.35 1016.32 1016.35 1016.41 1016.50 1016.60 1016.68 1016.75 1016.80 1016.83 1016.83 1016.81 1016.78 1016.72 1016.63 1016.52 1016.38
Thickness
5753 5739 5730 5735 5737 5736 5732 5725 5721 5728 5742 5738 5734 5735 5741 5746 5745 5746 5748 5752 5758 5767 5779 5786 5792 5794 5794 5792 5789 5785 5780 5776 5771 5764 5758 5753 5751 5751 5749 5748 5746 5744 5742 5740
5732 5727 5737 5741 5738 5731 5723 5715 5713 5722 5731 5729 5722 5724 5729 5731 5730 5731 5734 5739 5746 5757 5769 5778 5786 5790 5792 5792 5790 5786 5780 5776 5771 5766 5760 5754 5750 5747 5746 5744 5743 5742 5740 5738
5724 5729 5738 5733 5724 5716 5713 5707 5707 5708 5714 5715 5709 5707 5712 5716 5718 5722 5726 5731 5737 5746 5756 5769 5778 5785 5789 5790 5789 5786 5780 5773 5767 5761 5754 5749 5744 5742 5739 5738 5738 5738 5737 5735
5724 5728 5725 5717 5710 5707 5696 5708 5705 5701 5691 5683 5691 5673 5693 5692 5698 5706 5712 5718 5726 5737 5749 5761 5771 5779 5784 5787 5787 5782 5776 5769 5761 5754 5748 5742 5738 5735 5735 5735 5734 5734 5733 5731
5714 5715 5709 5701 5700 5700 5694 5699 5694 5690 5681 5671 5673 5664 5670 5677 5679 5687 5696 5704 5713 5725 5737 5750 5761 5770 5777 5779 5778 5773 5768 5761 5754 5747 5740 5735 5733 5732 5732 5731 5730 5728 5728 5727
5707 5711 5705 5697 5697 5694 5687 5681 5674 5664 5658 5651 5662 5653 5654 5661 5665 5673 5683 5691 5700 5712 5724 5735 5747 5756 5761 5764 5764 5761 5755 5748 5745 5739 5731 5727 5726 5725 5725 5725 5724 5723 5722 5721
5684 5689 5689 5687 5675 5673 5663 5648 5633 5633 5629 5635 5652 5646 5644 5656 5662 5665 5670 5679 5688 5698 5709 5718 5727 5735 5740 5743 5744 5745 5743 5734 5731 5727 5722 5721 5721 5720 5720 5719 5718 5717 5716 5715
5659 5656 5665 5664 5654 5645 5640 5631 5613 5607 5612 5622 5637 5633 5639 5651 5656 5660 5664 5670 5678 5686 5695 5704 5710 5717 5722 5725 5726 5726 5725 5719 5717 5716 5714 5714 5715 5715 5714 5714 5713 5712 5711 5710
5648 5643 5653 5649 5641 5632 5618 5611 5610 5601 5606 5609 5619 5626 5636 5643 5646 5651 5657 5662 5668 5676 5683 5691 5698 5703 5708 5710 5710 5710 5709 5708 5706 5705 5707 5707 5708 5709 5708 5708 5708 5707 5706 5705
5647 5630 5633 5632 5628 5617 5607 5598 5588 5585 5587 5592 5606 5611 5611 5621 5628 5638 5646 5652 5659 5667 5675 5681 5687 5691 5695 5697 5698 5698 5698 5698 5696 5699 5701 5703 5703 5703 5703 5702 5701 5701 5701 5700
5642 5622 5614 5611 5601 5592 5590 5585 5579 5577 5582 5585 5591 5598 5607 5610 5619 5628 5637 5645 5652 5660 5667 5673 5677 5681 5684 5684 5685 5686 5688 5689 5691 5694 5696 5698 5698 5699 5698 5697 5696 5696 5695 5693
5632 5610 5597 5598 5599 5596 5586 5577 5574 5571 5578 5586 5589 5591 5604 5607 5618 5626 5633 5641 5649 5656 5663 5667 5670 5673 5676 5677 5679 5681 5684 5687 5690 5693 5694 5694 5695 5695 5695 5693 5692 5690 5689 5688
5629 5606 5588 5588 5587 5586 5580 5578 5578 5578 5579 5584 5587 5590 5602 5608 5617 5624 5630 5637 5644 5652 5659 5662 5664 5667 5670 5673 5677 5680 5684 5688 5690 5692 5692 5692 5692 5691 5691 5689 5687 5685 5684 5683
5627 5599 5587 5577 5574 5574 5575 5579 5583 5583 5582 5584 5585 5590 5597 5603 5610 5618 5625 5633 5640 5647 5653 5657 5659 5663 5668 5672 5676 5680 5684 5688 5690 5690 5689 5688 5688 5687 5686 5685 5684 5682 5680 5679
5621 5598 5590 5585 5584 5581 5577 5577 5581 5582 5583 5583 5585 5589 5590 5597 5604 5612 5620 5629 5636 5642 5647 5652 5656 5660 5664 5669 5674 5678 5681 5684 5686 5686 5684 5683 5683 5682 5682 5680 5679 5678 5677 5675
5615 5602 5594 5588 5589 5587 5580 5578 5580 5581 5582 5585 5588 5589 5593 5600 5608 5614 5618 5624 5630 5636 5641 5646 5651 5655 5658 5663 5668 5672 5674 5676 5678 5677 5676 5676 5676 5675 5674 5674 5673 5672 5671 5670
5609 5602 5592 5585 5589 5587 5574 5574 5576 5578 5578 5580 5581 5583 5594 5601 5607 5611 5615 5620 5626 5632 5637 5641 5644 5647 5651 5656 5660 5663 5666 5668 5669 5669 5668 5668 5667 5667 5666 5666 5665 5664 5664 5663
5612 5598 5587 5584 5587 5576 5575 5583 5582 5582 5582 5583 5586 5590 5595 5600 5608 5615 5617 5618 5623 5629 5634 5637 5640 5643 5647 5651 5654 5657 5659 5660 5660 5660 5660 5659 5658 5658 5657 5657 5656 5656 5656 5655
5611 5602 5589 5582 5581 5580 5584 5587 5585 5583 5585 5588 5588 5593 5599 5605 5614 5617 5622 5622 5625 5630 5634 5637 5640 5642 5645 5647 5649 5651 5651 5651 5652 5652 5651 5650 5649 5648 5648 5647 5647 5647 5647 5647
5609 5600 5590 5584 5584 5581 5584 5592 5592 5587 5588 5593 5592 5594 5598 5602 5603 5610 5621 5624 5630 5634 5637 5640 5642 5643 5644 5644 5645 5646 5645 5645 5645 5644 5643 5642 5641 5640 5638 5638 5638 5638 5638 5638
5604 5593 5586 5584 5583 5584 5593 5596 5594 5586 5588 5596 5596 5597 5598 5598 5600 5611 5620 5626 5632 5636 5640 5641 5641 5641 5641 5642 5642 5641 5640 5639 5638 5638 5636 5634 5633 5632 5630 5629 5628 5628 5628 5628
5605 5596 5589 5581 5582 5585 5601 5599 5594 5594 5598 5599 5600 5602 5603 5606 5612 5619 5625 5630 5634 5637 5640 5641 5639 5638 5639 5639 5639 5637 5635 5634 5633 5632 5629 5626 5624 5623 5622 5620 5619 5619 5619 5619
5609 5604 5596 5592 5593 5602 5605 5605 5607 5604 5602 5604 5604 5607 5608 5612 5617 5622 5627 5631 5634 5637 5639 5639 5638 5637 5638 5637 5636 5634 5632 5631 5628 5625 5622 5619 5617 5615 5613 5612 5610 5610 5609 5609
5618 5612 5605 5602 5604 5608 5610 5610 5611 5610 5609 5610 5610 5612 5615 5617 5621 5625 5629 5632 5635 5637 5638 5639 5638 5637 5636 5636 5634 5632 5630 5628 5624 5621 5618 5615 5612 5609 5607 5605 5604 5602 5601 5600
5628 5617 5611 5608 5611 5613 5614 5614 5615 5616 5616 5616 5617 5619 5620 5622 5624 5627 5629 5632 5635 5637 5638 5639 5638 5637 5637 5636 5634 5632 5630 5627 5623 5620 5617 5614 5610 5607 5604 5601 5598 5596 5595 5593
5632 5628 5620 5618 5620 5616 5618 5621 5621 5620 5620 5621 5621 5622 5624 5625 5626 5629 5631 5634 5636 5637 5639 5639 5640 5639 5639 5638 5637 5635 5632 5628 5625 5621 5618 5614 5611 5607 5603 5600 5597 5594 5592 5591